User: anonymous   Login
Location: Cimarron National Grasslands
(37.1250°N, 101.7500°W)
Time: 08:28:05
(UTC-06:00)
Language:

Ariane Rocket - Orbit

View from above orbital plane
View from above orbital plane
View from above satellite
View from above satellite

Ground track
Ground track

The orbit data is extracted from the following two-line orbital elements,

1 23561U 95021B   14331.55100691  .00000457  00000-0  16821-3 0  9260
2 23561 098.7045 299.4478 0007917 134.9902 334.5993 14.37403864 27248
Epoch (UTC): 27 November 2014 13:13:26
Eccentricity: 0.0007917
inclination: 98.7045°
perigee height: 761 km
apogee height: 773 km
right ascension of ascending node: 299.4478°
argument of perigee: 134.9902°
revolutions per day: 14.37403864
mean anomaly at epoch: 334.5993°
orbit number at epoch: 2724

The dashed part of the orbit path shows where the satellite is in the earth's shadow,  

DLR